Enid, OK

7:41 PM CST on January 22, 2017 (GMT -0600)
Vance Air Force Base

Weather History for KEND - April, 2014

Change the Weather History Date:

Thursday, April 3, 2014

  Actual Average Record
Temperature  
Mean Temperature 56 °F -  
Max Temperature 70 °F 64 °F 90 °F (2011)
Min Temperature 39 °F 43 °F 30 °F (2002)
Degree Days  
Heating Degree Days 10    
Growing Degree Days 6 (Base 50)    
Moisture  
Dew Point 52 °F    
Average Humidity 83    
Maximum Humidity 100    
Minimum Humidity 46    
Precipitation  
Precipitation 0.00 in - - ()
Sea Level Pressure  
Sea Level Pressure 29.68 in    
Wind  
Wind Speed 20 mph (WNW)    
Max Wind Speed 30 mph    
Max Gust Speed 40 mph    
Visibility 9 miles    
Events      
Averages and records for this station are not official NWS values.
T = Trace of Precipitation, MM = Missing Value Source: NWS Daily Summary

Daily Weather History Graph

Daily Weather History Graph

Search for Another Location

Airport or City:

Trip Planner

Search our weather history database for the weather conditions in past years. The results will help you decide how hot, cold, wet, or windy it might be!

Date:

Astronomy

Apr. 03, 2014 Rise Set
Actual Time 7:14 AM CDT 7:55 PM CDT
Civil Twilight 6:48 AM CDT 8:21 PM CDT
Nautical Twilight 6:18 AM CDT 8:52 PM CDT
Astronomical Twilight 5:46 AM CDT 9:23 PM CDT
Moon 9:50 AM CDT (4/3) No Moon Set
Length of Visible Light 13h 32m
Length of Day
12h 40m
Waxing Crescent, 17% of the Moon is Illuminated
Apr 3
Waxing Crescent
Apr 7
First Quarter
Apr 15
Full
Apr 22
Last Quarter
Apr 29
New

Hourly Weather History & Observations

Time (CDT) Temp. Windchill Dew Point Humidity Pressure Visibility Wind Dir Wind Speed Gust Speed Precip Events Conditions
12:58 AM 70.5 °F - 70.0 °F 98% 29.54 in 10.0 mi South 21.9 mph 33.4 mph N/A   Clear
1:58 AM 69.1 °F - 69.1 °F 100% 29.52 in 10.0 mi South 24.2 mph 29.9 mph N/A   Clear
2:58 AM 67.8 °F - 67.8 °F 100% 29.51 in 10.0 mi South 20.7 mph 27.6 mph N/A   Clear
3:58 AM 66.6 °F - 66.6 °F 100% 29.51 in 10.0 mi South 18.4 mph - N/A   Clear
4:58 AM 65.7 °F - 65.7 °F 100% 29.50 in 10.0 mi South 20.7 mph - N/A   Clear
5:59 AM 64.4 °F - 64.4 °F 100% 29.50 in 10.0 mi South 19.6 mph 28.8 mph N/A   Partly Cloudy
6:55 AM 66.2 °F - 66.2 °F 100% 29.52 in 7.0 mi SSW 16.1 mph 26.5 mph N/A   Scattered Clouds
7:10 AM 66.2 °F - 66.2 °F 100% 29.58 in 4.0 mi West 15.0 mph - N/A   Mostly Cloudy
7:21 AM 64.4 °F - 64.4 °F 100% 29.58 in 5.0 mi WNW 10.4 mph - N/A   Overcast
7:55 AM 53.6 °F - 53.6 °F 100% 29.60 in 8.0 mi NW 18.4 mph 23.0 mph N/A   Overcast
8:55 AM 50.0 °F - 50.0 °F 100% 29.63 in 5.0 mi WNW 23.0 mph - N/A   Overcast
9:55 AM 50.0 °F - 50.0 °F 100% 29.67 in 5.0 mi WNW 19.6 mph 28.8 mph N/A   Overcast
10:52 AM 53.6 °F - 53.6 °F 100% 29.67 in 10.0 mi NW 21.9 mph - N/A   Mostly Cloudy
10:55 AM 53.6 °F - 53.6 °F 100% 29.65 in 10.0 mi WNW 19.6 mph 23.0 mph N/A   Scattered Clouds
11:55 AM 59.0 °F - 50.0 °F 72% 29.68 in 10.0 mi WNW 15.0 mph 23.0 mph N/A   Partly Cloudy
12:55 PM 62.6 °F - 48.2 °F 59% 29.66 in 10.0 mi NW 12.7 mph - N/A   Clear
1:55 PM 64.4 °F - 48.2 °F 56% 29.68 in 10.0 mi NW 12.7 mph - N/A   Clear
2:55 PM 64.4 °F - 48.2 °F 56% 29.68 in 10.0 mi NW 13.8 mph - N/A   Clear
3:58 PM 66.2 °F - 46.4 °F 49% 29.65 in 10.0 mi WNW 12.7 mph 20.7 mph N/A   Clear
4:55 PM 66.2 °F - 44.6 °F 46% 29.68 in 10.0 mi NW 18.4 mph 24.2 mph N/A   Partly Cloudy
5:58 PM 62.6 °F - 46.4 °F 55% 29.70 in 10.0 mi NNW 27.6 mph 35.7 mph N/A   Scattered Clouds
6:00 PM 62.6 °F - 46.4 °F 55% 29.70 in 10.0 mi NNW 27.6 mph 35.7 mph N/A   Scattered Clouds
6:59 PM 55.4 °F - 42.8 °F 63% 29.76 in 10.0 mi NW 25.3 mph 32.2 mph N/A   Mostly Cloudy
7:58 PM 51.1 °F - 43.2 °F 74% 29.83 in 10.0 mi NW 26.5 mph 38.0 mph N/A   Clear
8:58 PM 47.8 °F - 41.7 °F 79% 29.89 in 10.0 mi NW 27.6 mph 34.5 mph N/A   Partly Cloudy
10:48 PM 42.8 °F 34.0 °F 37.4 °F 81% 29.97 in 10.0 mi NNW 20.7 mph - N/A   Mostly Cloudy
10:58 PM 42.4 °F 34.1 °F 37.9 °F 84% 29.98 in 10.0 mi NW 18.4 mph 26.5 mph N/A   Mostly Cloudy
11:08 PM 41.0 °F 29.8 °F 37.4 °F 87% 29.97 in 10.0 mi NNW 29.9 mph 40.3 mph N/A   Scattered Clouds
11:58 PM 39.7 °F 30.9 °F 37.6 °F 92% 30.01 in 10.0 mi NNW 17.3 mph - N/A   Clear